sat.trackr.live / text

‹ back to catalog

ASBM-2

NORAD 60423 · 2024-143B

PAYLOAD ACTIVE UNKNOWN

§ Identity

Operator
Country
NOR
Launch date
2024-08-12
Launch site
AFWTR
Launch vehicle
Mass (kg)
RCS (m²)

External: N2YO · Heavens-Above · Gunter

§ Orbital elements

Epoch: 2026-05-23T13:39:08.439552Z

Period
957.26 min
Inclination
62.8072°
Eccentricity
0.5596832
Mean motion
1.50428815 rev/d
Perigee alt
7,788.9 km
Apogee alt
43,804.2 km
Semi-major
32,174.7 km
B*
0.0000e+0
RAAN
46.5193°
Arg perigee
269.3265°
Mean anomaly
29.7887°
Rev number
1,123

§ Raw data

ASBM-21 60423U 24143B   26143.56884768 -.00000069  00000+0  00000+0 0  99912 60423  62.8072  46.5193 5596832 269.3265  29.7887  1.50428815 11233

JSON: /api/v1/satellites/60423 · /tle

For live sub-satellite position, see the globe view (requires WebGL).

§ Visibility from observer

Set your observer location to see the next 7 days of passes ≥ 10°. The values pass through the URL so the page stays shareable.

No JS? Fill the form by hand. The geolocation button needs JavaScript.